Theta_e
323 324 326 328 329 332 335 337 337 340 338 333 334 336 336 338 335 336 334 332 331 331 333 331 330 332 329 328 328 330 328 328 330 328 328 332 337 336 336 337 336 334 334
320 322 325 328 328 330 334 336 337 339 338 337 340 338 337 337 337 337 335 334 331 333 333 331 330 330 329 330 328 331 327 327 329 327 327 321 326 331 333 334 332 333 334
319 321 323 326 327 329 333 334 337 338 339 340 338 338 336 334 337 335 332 331 333 333 333 332 331 330 332 329 328 329 327 327 329 331 327 320 318 325 330 331 331 332 332
321 322 323 325 327 326 331 335 337 337 337 339 338 337 332 329 334 334 334 330 333 332 332 332 331 332 332 329 329 330 328 327 325 329 332 332 327 320 320 328 330 331 330
321 321 323 325 325 327 330 334 337 337 340 341 339 336 335 334 335 334 332 332 329 333 332 332 333 331 330 331 330 330 329 331 329 329 329 329 328 327 323 319 324 329 330
321 322 325 326 324 326 328 334 336 336 339 340 338 338 333 332 332 330 330 331 332 330 332 332 333 332 331 333 333 332 330 332 332 332 329 328 325 323 322 321 322 323 327
320 321 322 322 323 323 327 330 333 332 335 337 337 336 334 331 332 330 328 329 329 329 330 332 333 334 333 335 335 334 332 333 332 330 330 330 329 327 326 323 321 320 320
321 321 322 322 321 323 325 327 330 330 332 333 336 338 334 333 332 330 329 329 330 330 331 332 334 334 333 333 334 332 333 332 331 330 330 330 329 329 327 324 320 317 318
321 321 323 323 323 324 326 329 331 331 332 332 336 337 335 334 335 335 332 328 332 332 332 333 333 334 333 332 332 332 332 333 331 331 330 329 330 329 328 326 325 320 315
320 321 322 323 324 325 327 331 332 330 332 333 335 334 332 336 335 337 334 329 332 333 331 332 332 332 333 333 334 333 333 331 329 329 329 328 329 328 329 328 327 325 321
318 321 321 324 323 323 324 329 330 328 330 331 333 334 333 336 334 333 333 328 329 331 331 330 332 332 332 331 334 332 331 330 329 328 326 326 328 328 327 328 326 325 324
319 320 321 323 320 321 324 326 330 325 327 329 330 334 335 336 334 333 334 330 331 332 332 333 332 332 333 334 332 330 330 328 327 327 325 324 327 326 326 327 325 325 326
319 320 321 321 318 320 322 323 326 325 324 325 327 333 336 334 335 333 333 331 329 331 332 332 332 331 332 331 331 332 331 329 328 327 325 324 325 324 325 325 325 326 329
319 319 320 321 317 320 321 322 325 324 323 323 326 330 335 334 336 335 334 334 333 329 329 332 332 331 331 332 333 332 331 330 329 328 327 326 326 325 326 326 325 326 326
318 320 321 321 318 320 321 322 324 323 323 321 325 329 333 337 336 334 334 333 333 332 331 332 332 331 332 332 332 332 331 330 329 329 330 328 326 324 326 327 324 326 325
318 320 322 322 318 320 320 322 324 322 321 321 322 326 327 331 333 335 332 331 330 332 330 325 326 325 318 306 316 328 331 329 328 328 325 321 317 314 313 316 316 322 322
320 320 322 322 320 321 323 323 324 322 321 320 320 323 325 326 332 332 332 330 332 334 328 327 326 323 316 305 307 317 329 328 328 326 323 322 322 322 319 309 310 310 310
322 322 324 325 324 323 323 325 325 322 319 320 318 321 322 324 328 330 331 333 333 333 331 327 326 321 310 305 306 318 332 331 329 328 326 321 326 322 324 324 323 323 323
326 325 326 328 325 324 324 324 324 322 319 319 319 318 321 324 326 328 331 334 335 333 332 329 327 320 316 303 303 319 329 329 327 327 326 329 322 305 306 323 321 321 316
328 327 328 328 326 326 325 324 323 322 319 319 321 318 319 325 326 332 333 334 336 334 330 329 330 319 319 299 299 307 326 326 324 323 314 305 317 300 302 323 322 320 320
328 330 329 327 327 327 326 324 323 323 322 321 322 321 321 326 330 334 334 334 334 331 332 329 330 328 321 310 298 297 316 322 318 317 317 309 299 297 297 303 320 311 309
327 329 328 328 329 328 326 324 324 326 324 322 322 322 326 321 329 333 332 332 331 333 329 330 327 328 325 310 297 295 298 299 319 314 315 307 295 295 296 301 296 298 306
327 328 329 330 330 328 326 324 327 327 324 323 324 325 324 324 329 330 330 328 330 328 323 324 322 322 324 315 300 295 295 300 315 314 308 296 295 296 295 293 296 297 310
327 329 329 330 330 329 328 327 328 327 325 325 326 326 323 323 327 328 329 325 324 323 322 320 320 320 321 321 313 307 302 299 309 301 299 297 299 300 304 301 296 304 309
328 329 328 330 331 331 330 329 329 327 325 326 326 326 324 322 326 327 327 325 326 321 322 321 320 320 318 319 312 309 312 316 315 318 312 312 312 309 310 313 315 315 313
328 330 331 333 332 332 331 330 329 327 328 326 325 324 323 321 324 324 325 299 305 302 299 300 314 321 311 300 300 300 301 301 300 312 317 316 315 314 314 315 315 319 316
Wind_Speed
12 13 11 9 7 6 5 5 4 3 2 5 1 0 1 2 4 3 4 7 5 7 4 4 5 4 5 6 8 4 5 5 5 5 4 4 4 4 8 11 10 13 10
15 14 12 9 8 6 6 5 5 2 3 4 2 1 0 2 1 1 1 2 4 6 4 5 6 6 4 5 7 6 3 3 4 4 4 4 3 3 7 9 10 12 10
13 15 14 11 9 7 6 6 4 2 1 4 4 1 3 3 1 1 1 3 1 3 4 5 4 5 4 4 5 5 3 4 1 6 4 4 3 5 5 11 9 11 9
14 15 14 12 9 8 7 6 4 3 4 4 5 5 3 4 2 2 3 1 2 3 4 4 5 6 4 6 5 8 2 8 3 3 0 7 5 3 8 8 10 10 9
16 16 15 13 11 8 7 5 5 4 2 1 4 4 4 3 3 2 3 5 3 2 4 4 4 3 2 5 7 7 12 8 7 4 4 7 5 4 7 10 10 10 7
15 15 14 13 10 8 8 6 5 3 3 1 2 3 5 6 4 2 4 4 3 1 4 4 1 2 2 2 5 6 10 8 6 6 5 7 5 6 7 9 11 10 8
14 14 14 13 10 9 8 6 5 5 4 3 2 4 7 8 6 5 5 4 4 4 4 4 2 0 4 3 3 5 7 10 9 8 8 9 7 6 10 9 7 6 3
13 14 14 12 11 10 9 7 6 6 5 4 3 3 8 3 4 5 3 3 4 4 5 4 4 4 5 5 6 5 9 9 7 10 10 9 9 8 8 5 10 9 4
13 14 14 12 11 9 8 6 6 6 4 4 2 1 7 5 5 5 4 3 4 4 5 4 4 5 6 8 9 6 9 10 8 9 8 9 9 7 9 8 5 5 8
13 13 13 11 9 9 7 6 5 5 4 4 4 2 6 5 6 6 5 4 4 5 6 6 7 8 7 9 9 7 9 11 7 6 11 10 7 9 8 7 6 3 6
14 13 13 11 9 10 10 6 6 6 5 4 4 2 5 4 7 6 4 6 3 5 7 8 7 8 7 9 7 8 9 10 9 8 9 11 11 8 8 7 5 4 3
14 14 13 12 10 10 10 8 6 6 6 5 5 2 5 5 7 6 5 6 6 5 6 8 8 7 8 8 9 10 9 10 11 9 10 10 8 10 9 7 6 5 3
14 13 13 13 11 11 10 10 8 7 7 6 7 2 5 6 6 7 8 5 6 7 5 6 5 7 7 8 10 9 9 8 9 11 10 10 10 9 7 8 6 4 4
14 14 13 13 12 12 11 11 9 8 7 7 8 4 5 6 4 5 8 7 7 6 6 4 6 9 7 7 9 9 9 9 8 9 10 10 8 10 9 7 6 4 6
17 14 13 12 13 12 10 11 10 9 7 8 9 5 4 4 5 5 5 11 10 6 7 5 2 10 11 6 9 9 9 9 10 9 8 8 7 8 8 5 4 4 6
17 16 14 14 14 14 11 10 10 10 8 7 10 8 6 4 5 6 5 6 5 7 9 7 8 7 6 7 12 10 8 7 7 8 7 6 9 6 9 8 7 4 6
17 17 16 14 13 13 11 11 10 11 9 8 10 10 7 7 6 6 5 4 5 6 10 9 8 6 6 10 10 12 8 7 8 10 11 10 8 8 8 9 11 7 10
16 17 15 13 13 13 13 11 11 11 11 9 11 11 10 9 7 7 6 6 4 5 6 8 7 6 4 9 10 8 7 6 7 7 7 8 7 6 7 6 5 4 5
13 15 15 14 14 13 13 12 12 13 12 11 11 12 11 11 8 7 8 6 4 4 3 7 8 7 4 5 9 4 6 6 5 8 6 7 7 7 6 7 7 5 2
12 14 18 16 15 13 14 13 13 13 13 12 12 12 11 11 10 7 8 7 5 5 4 6 7 10 6 2 3 4 2 6 4 6 6 7 9 9 7 3 6 6 5
13 14 19 18 17 15 14 14 14 14 13 12 12 11 10 9 8 8 7 6 5 6 5 6 6 7 8 6 6 6 1 4 5 5 5 4 10 11 9 7 5 3 3
14 15 17 16 17 16 15 15 13 12 13 13 12 12 9 9 8 9 8 7 5 5 5 6 5 5 8 9 6 6 5 7 2 7 5 6 10 10 8 7 6 8 5
11 13 14 16 16 17 17 16 12 13 13 11 11 11 12 8 10 9 8 7 5 4 6 5 5 5 7 5 11 10 9 6 2 3 9 14 10 9 6 8 5 2 0
10 12 14 18 17 17 17 15 14 14 13 10 10 12 12 8 10 9 8 8 8 7 8 7 7 6 8 7 6 5 5 4 7 9 8 8 8 7 4 5 4 3 3
9 12 11 14 18 16 16 16 16 16 12 10 11 12 10 10 10 9 9 9 9 9 7 7 7 6 9 9 11 10 7 6 5 9 5 4 4 5 4 4 4 4 4
10 10 8 9 16 17 16 17 17 17 12 11 11 11 11 10 9 9 7 5 2 13 9 6 5 7 11 19 19 16 14 13 12 2 4 4 5 6 7 8 7 4 6
Wind_Direction
151 151 158 170 158 189 179 204 193 230 264 281 351 18 327 290 193 211 238 247 231 264 217 229 201 183 190 197 187 162 192 179 175 123 123 134 96 159 159 129 128 127 129
144 154 159 171 165 188 203 180 211 186 276 300 20 336 96 260 25 117 309 320 229 228 205 207 178 177 194 190 189 149 146 107 184 148 134 131 73 91 121 127 126 127 135
161 159 163 175 176 198 177 198 158 157 238 304 297 346 38 344 310 330 64 342 163 183 190 196 194 156 187 170 167 125 99 121 76 134 135 126 149 145 142 130 123 119 126
167 159 166 174 182 191 181 153 155 214 187 12 355 12 3 346 330 18 59 72 155 170 181 206 165 173 200 162 142 129 161 113 151 127 73 80 93 143 130 119 119 117 116
165 164 168 171 181 184 160 159 164 177 136 146 35 347 35 2 354 18 60 83 45 34 164 201 207 171 252 167 142 154 157 143 176 117 113 92 99 81 102 111 114 107 103
156 157 163 165 176 165 156 156 191 160 217 182 59 16 5 360 21 60 65 74 66 85 145 171 221 184 117 201 137 136 141 134 115 102 124 116 106 131 114 121 115 121 121
149 157 165 163 173 171 153 166 176 175 230 107 53 34 65 38 61 59 44 60 56 67 115 106 145 258 168 173 124 119 139 125 110 111 99 94 100 99 103 109 110 107 80
148 160 167 164 168 166 156 211 169 146 221 104 87 66 91 90 76 83 71 49 58 77 121 140 154 186 181 149 148 142 102 102 96 97 108 106 102 112 119 112 123 109 92
150 161 162 169 166 158 159 200 181 159 187 120 128 70 109 99 103 112 99 66 89 100 91 110 121 126 136 139 124 114 109 97 90 90 95 102 113 108 103 123 106 125 139
157 163 164 169 163 154 157 184 165 157 160 157 179 125 114 141 138 156 135 111 70 118 115 99 116 119 131 126 112 116 115 103 95 95 104 102 109 101 108 107 96 90 122
166 164 165 161 170 158 161 183 190 162 143 169 100 199 115 116 94 91 112 118 76 128 113 113 113 119 116 132 117 108 109 110 109 107 104 109 117 116 109 112 109 125 113
170 167 165 164 176 167 163 172 201 156 167 164 132 165 114 99 101 103 111 109 93 68 86 119 121 118 133 140 132 134 134 132 126 126 122 116 114 118 119 121 149 187 179
169 167 167 169 180 171 170 168 191 171 172 168 121 165 116 92 101 121 119 128 104 100 113 102 131 128 139 148 132 128 127 126 127 128 130 122 124 134 138 147 180 199 147
168 170 170 171 179 173 174 169 182 166 168 152 135 164 130 135 147 149 143 137 112 109 102 139 122 139 154 138 126 130 128 132 135 138 120 125 146 153 173 184 195 190 142
170 173 175 172 176 172 178 171 177 161 161 157 137 159 142 156 150 137 98 132 138 142 133 122 158 100 122 142 130 129 141 133 132 135 124 150 175 168 186 194 198 204 156
176 178 177 176 176 172 181 175 174 153 162 159 143 158 174 172 134 103 104 109 115 125 127 85 76 66 70 64 119 128 130 121 119 131 135 128 125 142 167 168 120 106 144
181 180 178 178 174 171 184 167 173 151 162 167 151 164 182 157 143 140 132 89 95 93 105 96 89 75 62 46 74 119 116 118 133 144 148 157 147 130 115 100 98 96 97
182 178 172 171 166 168 177 164 174 158 169 187 161 168 177 162 173 154 132 108 90 91 108 117 110 99 71 49 46 108 115 124 136 143 119 120 123 119 132 134 126 89 65
174 173 164 159 160 170 172 170 181 169 178 190 167 170 182 162 175 165 140 138 140 129 135 129 128 118 117 67 57 75 104 110 122 90 91 136 124 127 80 155 156 155 142
175 166 158 156 163 170 170 174 188 174 186 188 176 169 181 165 169 158 147 148 165 160 190 141 140 143 143 176 102 46 102 123 111 105 90 56 131 107 66 187 154 154 186
165 162 158 166 167 167 171 182 189 182 186 190 178 165 169 158 158 143 146 151 175 173 215 151 146 143 147 176 196 111 350 150 148 140 139 114 114 106 74 58 69 93 303
164 163 159 166 165 167 172 186 193 182 190 194 178 163 149 166 154 146 155 160 188 172 196 146 150 147 149 158 202 122 74 17 193 158 158 138 138 126 99 85 95 57 31
163 166 161 161 166 172 177 186 190 185 193 197 170 153 148 169 150 150 157 165 189 195 185 174 176 179 156 163 159 154 118 32 82 31 127 125 126 122 109 128 115 96 177
183 167 169 161 169 181 181 180 187 186 194 193 161 151 152 163 152 161 168 184 183 209 184 196 191 191 164 159 154 153 138 120 99 101 113 148 158 171 154 137 181 200 224
189 164 183 165 168 179 181 178 187 186 194 182 163 157 161 167 162 176 181 197 182 201 191 198 188 190 173 173 167 163 167 165 171 132 136 150 159 179 200 217 174 195 192
169 161 165 173 171 173 182 182 187 187 191 178 169 168 166 172 174 183 189 68 258 168 112 90 193 193 171 155 163 163 164 167 172 153 169 179 193 197 197 200 193 138 96